Location: Oshawa
(43.9000°N, 78.8670°W)
Time: 09:20:31
(UTC-05:00)

Cosmos 1821 Rocket - Visible Passes

Search period start: 08 February 2016 00:00
Search period end: 18 February 2016 00:00
Orbit: 946 x 1004 km, 82.9° (Epoch: 07 February)

Date Brightness Start Highest point End Pass type
(mag) Time Alt. Az. Time Alt. Az. Time Alt. Az.
08 Feb 6.8 04:01:01 10° NNE 04:04:17 14° ENE 04:07:30 10° E visible
08 Feb 4.1 05:44:17 10° N 05:50:43 83° E 05:57:00 10° S visible
08 Feb 4.9 19:15:22 10° SSW 19:21:30 51° WNW 19:27:43 10° N visible
09 Feb 6.1 04:25:04 10° NNE 04:30:11 25° ENE 04:35:11 10° ESE visible
09 Feb 4.1 06:09:45 10° NNW 06:15:59 57° W 06:22:05 10° SSW visible
09 Feb 4.3 17:55:31 10° SSE 18:01:31 47° E 18:07:36 10° NNE visible
09 Feb 5.9 19:41:39 10° SW 19:47:06 30° WNW 19:52:38 10° N visible
10 Feb 5.2 04:49:51 10° N 04:55:52 42° ENE 05:01:45 10° SE visible
10 Feb 4.7 06:35:32 10° NNW 06:41:04 32° W 06:46:31 10° SSW visible
10 Feb 4.0 18:20:23 10° S 18:26:43 82° E 18:33:09 10° N visible
10 Feb 6.6 20:08:50 10° WSW 20:12:55 17° WNW 20:17:03 10° NNW visible
11 Feb 6.9 03:32:24 10° NE 03:34:43 12° ENE 03:37:02 10° E visible
11 Feb 4.2 05:14:57 10° N 05:21:20 72° E 05:27:35 10° SSE visible
11 Feb 4.7 18:45:51 10° SSW 18:52:06 59° WNW 18:58:26 10° N visible
12 Feb 6.2 03:55:58 10° NNE 04:00:41 21° ENE 04:05:19 10° ESE visible
12 Feb 3.9 05:40:21 10° NNW 05:46:39 66° W 05:52:49 10° S visible
12 Feb 5.7 19:11:57 10° SW 19:17:40 34° WNW 19:23:26 10° N visible
13 Feb 5.4 04:20:37 10° N 04:26:25 36° ENE 04:32:06 10° SE visible
13 Feb 4.5 06:06:02 10° NNW 06:11:47 38° W 06:17:26 10° SSW visible
13 Feb 6.5 19:38:51 10° WSW 19:43:25 20° WNW 19:48:01 10° NNW visible
14 Feb 4.4 04:45:39 10° N 04:51:57 62° ENE 04:58:08 10° SSE visible
14 Feb 5.1 06:32:09 10° NW 06:36:44 21° W 06:41:15 10° SW visible
14 Feb 4.5 18:16:24 10° SSW 18:22:43 68° W 18:29:07 10° N visible
14 Feb 7.0 20:07:25 10° WNW 20:09:24 11° WNW 20:11:22 10° NW visible
15 Feb 6.4 03:26:57 10° NNE 03:31:10 18° ENE 03:35:20 10° ESE visible
15 Feb 3.9 05:10:58 10° N 05:17:19 77° W 05:23:31 10° S visible
15 Feb 5.5 18:42:19 10° SW 18:48:13 39° WNW 18:54:13 10° N visible
16 Feb 5.6 03:51:25 10° N 03:56:58 31° ENE 04:02:25 10° SE visible
16 Feb 4.3 05:36:34 10° NNW 05:42:29 44° W 05:48:19 10° SSW visible
16 Feb 6.4 19:08:58 10° WSW 19:13:56 23° WNW 19:18:56 10° NNW visible
17 Feb 4.6 04:16:22 10° N 04:22:33 53° ENE 04:28:37 10° SSE visible
17 Feb 4.9 06:02:33 10° NNW 06:07:30 25° W 06:12:22 10° SW visible
17 Feb 6.9 19:36:51 10° W 19:39:51 13° WNW 19:42:51 10° NNW visible
